Zurück zum Katalog

CZ-3C DEB

AktivHEO
NORAD 40171·DEBRIS·🇨🇳 China

Gestartet Oct 31, 2010 von Xichang Satellite Launch Center

Loading…

Nächste Überflüge (nächste 24 Stunden)

TLE

AlterndSource: Space-Track

Epoche: Sep 3, 2026, 04:42 UTC

1 40171U 10057Z   26246.19589375  .00029197  00000-0  37566-2 0  9990
2 40171  21.8651 188.4079 3917156 235.5707  81.0579  7.51272023218938

Verfolge CZ-3C DEB in Echtzeit mit AllMySat

Download on the App Store